HORIZONS 3E

Last updated on Tue Mar 22 2022 00:02:42 GMT+0000 (Coordinated Universal Time)

1 43633U 18074B 22080.13299375 -.00000031 00000+0 00000+0 0 9993 2 43633 0.0190 1.3268 0000735 14.1615 20.0011 1.00272415 12799

Satellite not in orbit

HORIZONS 3E